Flag for Canada Weather past 2 weeks in Kelowna, British Columbia, Canada

Now
43 °F

Overcast.


Feels Like: 43 °F
Forecast: 42 / 62 °F
Wind: 2 mph from North

Location: Kelowna Airport

Current Time: Mar 29, 2015 at 6:46:39 AM

Latest Report: Mar 29, 2015 at 6:00 AM


Visibility: 9 mi

Pressure: 30.16 "Hg

Humidity: 81%

Dew point: 37 °F

Location of KelownaLocation

Historic Weather in Kelowna — Graph

°F

Kelowna temperature yesterday

Maximum temperature yesterday: 63 °F (at 2:00 PM)
Minimum temperature yesterday: 46 °F (at 11:00 PM)
Average temperature yesterday: 54 °F

Past Weeks' High & Low Weather Summary

 TemperatureHumidityPressure
High64 °F (Mar 14, 4:00 PM)100% (Mar 16, 1:00 AM)30.37 "Hg (Mar 16, 1:00 AM)
Low28 °F (Mar 16, 8:00 AM)21% (Mar 14, 7:00 PM)29.63 "Hg (Mar 14, 1:00 PM)
Average47 °F72%30.04 "Hg
* Reported Mar 14 5:00 AM — Mar 29 5:00 AM, Kelowna, Weather by CustomWeather, © 2015

Note: Actual official high and low records may vary slightly from our data, if they occured in-between our weather recording intervals... More about our weather records

Advertising

Kelowna weather history for previous 24 hours

 ConditionsComfort  
Time TempWeatherWind HumidityBarometerVisibility
5:00 AM
Sun, Mar 29
43 °FOvercast.No wind76%30.18 "Hg9 mi
4:00 AM41 °FMostly cloudy.2 mph87%30.19 "Hg9 mi
3:00 AM43 °FMostly cloudy.2 mph76%30.18 "Hg9 mi
2:00 AM41 °FMostly cloudy.2 mph81%30.21 "Hg9 mi
1:00 AM43 °FMostly cloudy.2 mph76%30.22 "Hg9 mi
12:00 AM48 °FOvercast.2 mph58%30.23 "Hg9 mi
11:00 PM
Sat, Mar 28
46 °FOvercast.6 mph66%30.25 "Hg9 mi
10:00 PM52 °FOvercast.8 mph47%30.24 "Hg9 mi
9:00 PM52 °FMostly cloudy.10 mph47%30.23 "Hg9 mi
8:00 PM52 °FPartly sunny.2 mph47%30.22 "Hg9 mi
7:00 PM54 °FPassing clouds.14 mph44%30.20 "Hg9 mi
6:00 PM55 °FPartly sunny.21 mph41%30.16 "Hg9 mi
5:00 PM59 °FPassing clouds.17 mph34%30.12 "Hg9 mi
4:00 PM61 °FSunny.17 mph34%30.10 "Hg9 mi
3:45 PM61 °FSunny.21 mph34%30.09 "Hg9 mi
3:00 PM63 °FPartly sunny.8 mph32%30.08 "Hg9 mi
2:00 PM63 °FPartly sunny.14 mph34%30.07 "Hg9 mi
1:00 PM59 °FPartly sunny.5 mph36%30.07 "Hg9 mi
12:00 PM55 °FOvercast.6 mph47%30.06 "Hg9 mi
11:00 AM55 °FOvercast.8 mph47%30.04 "Hg9 mi
10:00 AM54 °FMostly cloudy.5 mph47%30.02 "Hg9 mi
9:00 AM52 °FMore clouds than sun.8 mph54%29.98 "Hg9 mi
8:00 AM50 °FMostly cloudy.12 mph54%29.93 "Hg9 mi
7:00 AM50 °FMostly cloudy.12 mph50%29.89 "Hg9 mi
6:00 AM52 °FOvercast.17 mph44%29.85 "Hg9 mi
Weather by CustomWeather, © 2015

See weather overviewHow to use our weather pages